Regional Weather Roundup
Issued by NWS

Home | Current Version | Previous Version | Text Only | Print | Product List | Glossary On
Versions: 1 2 3 4 5 6 7 8 9 10 11 12 13 14 15 16 17 18 19 20 21 22 23 24 25 26 27 28 29 30 31 32 33 34 35 36 37 38 39 40 41 42 43 44 45 46 47 48 49 50
000
ASUS43 KLOT 240808
RWRIL

ILLINOIS REGIONAL WEATHER ROUNDUP
NATIONAL WEATHER SERVICE CHICAGO/ROMEOVILLE IL
200 AM CST WED JAN 24 2018

NOTE: "FAIR" INDICATES FEW OR NO CLOUDS BELOW 12,000 FEET WITH NO
SIGNIFICANT WEATHER AND/OR OBSTRUCTIONS TO VISIBILITY.

* THESE STATIONS ARE NOT UNDER NWS QUALITY CONTROL. THEY ALSO MAY NOT
  REPORT WEATHER SUCH AS PRECIPITATION OR FOG.

ILZ001-002-007-009-015-016-024-240900-
NORTHWEST ILLINOIS

CITY           SKY/WX    TMP DP  RH WIND       PRES   REMARKS
MOLINE         CLOUDY    26  18  71 W9        30.22R WCI  17
STERLING*        N/A     25  21  85 MISG        N/A
SAVANNA*       CLOUDY    25  20  82 NW5       30.22R WCI  19
$$

ILZ003-004-008-010-011-017-018-240900-
NORTH CENTRAL ILLINOIS

CITY           SKY/WX    TMP DP  RH WIND       PRES   REMARKS
ROCKFORD       FLURRIES  27  22  81 W5        30.19R WCI  22
FREEPORT*      CLOUDY    25  22  85 N7        30.20R WCI  18
ROCHELLE*      CLOUDY    26  24  93 W8        30.20R WCI  17
DE KALB*       CLOUDY    27  24  88 W3        30.18R
PERU*          CLOUDY    26  21  83 NW9       30.22R WCI  16
$$

ILZ005-006-012>014-019>023-240900-
NORTHEAST ILLINOIS

CITY           SKY/WX    TMP DP  RH WIND       PRES   REMARKS
CHICAGO-OHARE  CLOUDY    28  21  75 NW7       30.18R WCI  21
CHICAGO-MIDWAY FLURRIES  29  23  78 W6        30.18R WCI  23
AURORA         CLOUDY    28  25  88 W9        30.18R WCI  19
LANSING*       CLOUDY    28  25  87 W8        30.19R WCI  20
JOLIET*        CLOUDY    30  27  88 W5        30.20R WCI  25
WAUKEGAN       CLOUDY    26  23  88 CALM      30.17R
DUPAGE AIRPORT CLOUDY    27  24  89 NW7       30.17R WCI  19
KANKAKEE*      CLOUDY   N/A N/A N/A W14       30.21R
WHEELING       CLOUDY    28  22  78 NW6       30.19R WCI  22
MORRIS*        MIX PCPN  28  25  88 W9        30.20R WCI  19
ROMEOVILLE*    CLOUDY    28  25  86 W3        30.19R
NORTHERLY ISL    N/A     28  22  78 NW5         N/A  WCI  23
$$

LMZ740>746-240900-
SOUTHERN LAKE MICHIGAN

STATION/POSITION SKY/WX   TEMP    WIND        PRES    VSBY  WAVE
                          AIR SEA DIR/SP/G                  HT/PER
                          (F)     (DEG/KT/KT) (MB)    (MI)  (FT/S)
HARRISON CRIB              29     270/ 10/ 12   N/A
BURNHAM HARBOR             28     270/  8/ 10   N/A
CALUMET HARBOR             28     240/  4/  7 1021.4R
BURNS HARBOR               29     330/  8/ 10 1022.4R
MICHIGAN CITY              29     290/ 13/ 14   N/A
$$

ILZ025>027-034>036-040-047-049-050-058-095>099-240900-
WEST-CENTRAL ILLINOIS

CITY           SKY/WX    TMP DP  RH WIND       PRES   REMARKS
QUINCY         CLOUDY    27  21  78 W8        30.24S WCI  19
GALESBURG*     CLOUDY    26  21  81 NW6       30.23S WCI  19
MACOMB*        CLOUDY    28  22  79 NW8       30.26R WCI  20
JACKSONVILLE*  CLOUDY    28  22  79 W8        30.25R WCI  20
PITTSFIELD*    CLOUDY    29  23  78 W6        30.26R WCI  23
$$

ILZ028>032-037-038-041>044-048-051>054-059>061-240900-
CENTRAL ILLINOIS

CITY           SKY/WX    TMP DP  RH WIND       PRES   REMARKS
PONTIAC        CLOUDY    28  25  89 W9        30.23R WCI  19
BLOOMINGTON    CLOUDY    27  22  81 W7        30.21R WCI  19
DECATUR        CLOUDY    29  23  78 W12       30.23R WCI  19
PEORIA         CLOUDY    27  20  75 NW8       30.22S WCI  19
LACON*         CLOUDY    26  20  77 NW9       30.22R WCI  16
LINCOLN*       CLOUDY    29  23  76 NW8       30.24S WCI  21
SPRINGFIELD    CLOUDY    30  23  75 NW7       30.24S WCI  23
TAYLORVILLE    CLOUDY    29  23  79 W7G17     30.25R WCI  22
$$

ILZ033-039-045-046-055>057-062-063-240900-
EAST-CENTRAL ILLINOIS

CITY           SKY/WX    TMP DP  RH WIND       PRES   REMARKS
CHAMPAIGN      CLOUDY    29  23  78 W13       30.22R WCI  19
DANVILLE*      CLOUDY    28  25  87 W9        30.19R WCI  19
RANTOUL*       CLOUDY    31  26  81 NW8       30.21R WCI  23
MATTOON        CLOUDY    30  25  81 W8        30.22R WCI  22
PARIS*         CLOUDY    30  27  90 W13       30.24R WCI  20
$$

ILZ079-100>102-240900-
SOUTHWEST ILLINOIS

CITY           SKY/WX    TMP DP  RH WIND       PRES   REMARKS
ALTON          CLOUDY    31  26  83 W6        30.26R WCI  25
BELLEVILLE     CLOUDY    33  22  62 W13       30.24S WCI  24
CAHOKIA*       CLOUDY    33  22  63 NW8       30.26R WCI  26
SPARTA*        CLOUDY    33  26  72 W8        30.26F WCI  27
$$

ILZ064>066-069>071-074>076-080>082-084>086-088>090-092>094-240900-
SOUTH-CENTRAL ILLINOIS

CITY           SKY/WX    TMP DP  RH WIND       PRES   REMARKS
CARBONDALE     CLOUDY    34  25  69 NW6       30.27R WCI  29
CAIRO*         FAIR      29  28  96 W7        30.29R WCI  22
EFFINGHAM*     CLOUDY    32  26  80 W8        30.26R WCI  25
MARION         CLOUDY    34  24  67 W5        30.28R WCI  30
MT. VERNON     CLOUDY    34  26  72 W3        30.26R
CENTRALIA*     CLOUDY    33  28  81 CALM      30.24S
SALEM*         CLOUDY    34  26  71 NW8       30.25R WCI  27
METROPOLIS*    CLOUDY    31  29  92 CALM      30.28R
$$

ILZ067-068-072-073-078-083-087-091-240900-
SOUTHEAST ILLINOIS

CITY           SKY/WX    TMP DP  RH WIND       PRES   REMARKS
LAWRENCEVILLE  CLOUDY    33  25  72 NW14      30.26R WCI  23
FLORA*         CLOUDY    33  28  81 CALM      30.26R
FAIRFIELD*     CLOUDY    34  27  75 CALM      30.25R
HARRISBURG*    CLOUDY    34  27  75 W5        30.27S WCI  30
ROBINSON*      CLOUDY    31  26  83 NW5       30.26R WCI  26
CARMI*         CLOUDY    34  27  76 W6        30.25S WCI  29
$$

ABBREVIATIONS USED IN REMARKS
   TC - TEMPERATURE IN CELSIUS
  WCI - WIND CHILL INDEX
   HX - HEAT INDEX
  VSB - VISIBILITY
$$




USA.gov is the U.S. government's official web portal to all federal, state and local government web resources and services.